EDT,Max TemperatureF,Mean TemperatureF,Min TemperatureF,Max Dew PointF,MeanDew PointF,Min DewpointF,Max Humidity, Mean Humidity, Min Humidity, Max Sea Level PressureIn, Mean Sea Level PressureIn, Min Sea Level PressureIn, Max VisibilityMiles, Mean VisibilityMiles, Min VisibilityMiles, Max Wind SpeedMPH, Mean Wind SpeedMPH, Max Gust SpeedMPH,PrecipitationIn, CloudCover, Events, WindDirDegrees
2013-7-1,80,78,75,77,74,71,94,89,83,30.10,30.00,29.91,10,9,6,26,13,36,0.13,5,Rain,184
2013-7-2,84,78,73,78,75,72,94,87,79,30.25,30.18,30.09,10,8,2,26,11,34,0.37,4,Rain,179
2013-7-3,84,80,75,77,75,73,100,88,74,30.30,30.25,30.21,10,8,2,16,10,25,0.49,4,Rain,174
2013-7-4,84,80,77,75,74,73,88,80,69,30.32,30.29,30.26,10,10,10,13,8,18,0.00,2,Rain,160
2013-7-5,84,81,78,76,74,72,90,81,71,30.32,30.28,30.23,10,10,9,13,8,22,0.00,2,Rain,187
2013-7-6,84,80,77,74,73,72,84,78,67,30.28,30.24,30.19,10,10,10,10,8,,0.00,2,,199
2013-7-7,84,80,77,73,72,70,81,74,67,30.22,30.19,30.12,10,10,9,16,10,21,0.00,2,,215
2013-7-8,84,81,78,74,72,71,82,74,65,30.21,30.18,30.14,10,10,10,16,12,21,0.00,1,,219
2013-7-9,84,80,75,76,74,72,90,82,69,30.22,30.17,30.14,10,9,1,17,11,22,0.25,3,Rain,223
2013-7-10,84,81,78,75,74,73,89,78,69,30.15,30.09,30.03,10,10,6,21,11,24,0.01,1,Rain,208
2013-7-11,84,80,77,77,75,72,94,84,74,30.04,29.98,29.94,10,9,2,21,13,26,0.06,4,Rain,223
2013-7-12,81,76,71,76,73,70,100,91,81,30.01,29.96,29.91,10,6,0,20,9,24,2.19,6,Fog-Rain,207
2013-7-13,86,78,73,76,74,72,100,85,67,30.22,30.10,30.00,10,9,2,21,6,30,0.26,4,Rain,145
2013-7-14,86,82,78,75,74,73,89,79,67,30.29,30.26,30.21,10,10,10,14,7,18,0.00,2,,108
2013-7-15,86,80,75,77,74,72,97,81,65,30.30,30.28,30.25,10,10,8,12,5,16,0.00,2,,90
2013-7-16,88,80,73,77,75,72,100,83,65,30.28,30.23,30.18,10,10,8,13,5,,0.00,1,,256
2013-7-17,91,83,75,78,73,69,94,76,50,30.20,30.16,30.12,10,10,8,10,7,,0.00,1,,22
2013-7-18,89,81,75,76,73,67,94,75,51,30.15,30.13,30.09,10,10,7,14,5,,0.00,0,,238
2013-7-19,86,82,80,77,76,74,88,81,74,30.15,30.10,30.05,10,10,10,21,11,26,0.00,1,,230
2013-7-20,84,80,75,77,74,73,94,81,72,30.08,30.05,30.00,10,9,1,25,19,32,0.38,2,Rain,226
2013-7-21,82,78,75,77,75,72,94,85,76,30.04,30.01,29.96,10,9,2,20,14,26,0.13,3,Rain,224
2013-7-22,84,80,78,77,76,75,93,86,77,29.98,29.93,29.87,10,9,6,22,11,32,0.00,2,,225
2013-7-23,82,80,78,77,75,73,94,86,77,29.89,29.83,29.77,10,9,7,22,16,28,0.00,3,,235
2013-7-24,86,82,77,78,76,75,96,87,74,29.83,29.79,29.76,10,8,5,17,9,22,0.00,1,,223
2013-7-25,86,78,73,77,74,69,100,86,72,30.00,29.85,29.78,10,9,3,13,5,18,0.06,4,Rain,15
2013-7-26,82,76,69,71,69,68,100,80,60,30.09,30.06,30.00,10,9,6,9,4,,0.00,2,,48
2013-7-27,86,76,68,74,70,67,96,78,57,30.06,30.02,29.99,10,10,9,9,3,,0.00,0,,110
2013-7-28,84,80,75,77,75,73,97,86,76,30.04,29.98,29.90,10,9,2,18,9,26,0.26,4,Rain,209
2013-7-29,84,76,69,77,73,67,100,88,62,30.15,30.09,30.03,10,6,1,25,10,31,0.79,5,Rain,218
2013-7-30,82,77,72,75,73,71,100,85,69,30.20,30.16,30.13,10,9,5,8,5,,0.00,5,,59
2013-7-31,84,78,73,74,71,67,100,80,62,30.15,30.11,30.05,10,9,6,9,4,,0.00,1,,96